Location: Newark
(25.5428°S, 54.5819°W)
Time: 20:56:33
(UTC+00:00)

Envisat - Pass Details

Date: 26 July 2019
Orbit: 764 x 766 km, 98.1° (Epoch: 24 August)

Event Time Altitude Azimuth Distance (km) Brightness Sun altitude
Rises 09:45:03 0° 25° (NNE) 3,214 6.9 -8.2°
Reaches altitude 10° 09:47:24 10° 30° (NNE) 2,295 6.2 -7.7°
Maximum altitude 09:52:18 52° 105° (ESE) 954 4.0 -6.7°
Drops below altitude 10° 09:57:15 10° 180° (S) 2,322 5.3 -5.6°
Sets 09:59:37 0° 184° (S) 3,255 6.0 -5.1°
